Hourly Data Report for October 12, 2014

All times are specified in Local Standard Time (LST). Add 1 hour to adjust for Daylight Saving Time where and when it is observed.

IQALUIT CLIMATE
NUNAVUT

63°44'50.000" N
68°32'40.000" W
33.50 m
2402592
71321
XFB

Download Data

Hourly Data (October 2014)
Hourly Data Report for October 12, 2014
Temp Definition
°C
Dew Point Temp Definition
°C
Rel Hum Definition
%
Wind Dir Definition
10's deg

Wind Spd Definition
km/h
Visibility Definition
km
Stn Press Definition
kPa
Hmdx Definition


Wind Chill Definition


Weather Definition


TIME
00:00 -1.5 -2.3 94 15 28   99.62   -8 LegendNANA
01:00 -1.3 -2.2 94 14 27   99.66   -8 LegendNANA
02:00 -1.5 -2.4 94 13 28   99.69   -8 LegendNANA
03:00 -0.4 -2.4 86 15 25   99.69   -6 LegendNANA
04:00 -0.1 -2.5 84 15 24   99.72   -6 LegendNANA
05:00 0.4 -2.6 81 16 20   99.77     LegendNANA
06:00 0.4 -2.4 82 15 22   99.80     LegendNANA
07:00 0.6 -2.4 80 14 28   99.82     LegendNANA
08:00 0.8 -2.3 80 14 32   99.84     LegendNANA
09:00 1.2 -1.7 81 14 41   99.86     LegendNANA
10:00 1.2 -1.2 84 14 38   99.91     LegendNANA
11:00 1.4 -0.7 86 15 32   99.93     LegendNANA
12:00 1.2 -0.6 88 14 28   99.97     LegendNANA
13:00 1.5 -0.9 84 14 31   100.01     LegendNANA
14:00 1.3 -0.6 87 15 32   100.04     LegendNANA
15:00 1.2 -0.3 90 15 29   100.09     LegendNANA
16:00 1.1 -0.5 89 15 27   100.12     LegendNANA
17:00 0.9 -0.5 91 15 28   100.17     LegendNANA
18:00 0.9 -0.6 90 14 28   100.20     LegendNANA
19:00 0.8 -0.6 90 15 27   100.22     LegendNANA
20:00 1.0 -0.8 88 14 26   100.25     LegendNANA
21:00 0.9 -0.9 88 14 30   100.27     LegendNANA
22:00 0.7 -0.7 91 14 27   100.29     LegendNANA
23:00 0.5 -1.0 90 14 26   100.31     LegendNANA

Notes on Data Quality.

Legend

  • E = Estimated
  • M = Missing
  • NA = Not Available
  • ‡ = Partner data that is not subject to review by the National Climate Archives
Date modified: